Weather History for KFVX - June, 2014

Change the Weather History Date:

Monday, June 16, 2014

  Actual Average Record
Temperature  
Mean Temperature 78 °F -  
Max Temperature 93 °F 85 °F 96 °F (1956)
Min Temperature 62 °F 63 °F 46 °F (1933)
Cooling Degree Days 12    
Growing Degree Days 28 (Base 50)    
Moisture  
Dew Point 66 °F    
Average Humidity 71    
Maximum Humidity 100    
Minimum Humidity 36    
Precipitation  
Precipitation 0.00 in - - ()
Sea Level Pressure  
Sea Level Pressure 30.11 in    
Wind  
Wind Speed 1 mph (WSW)    
Max Wind Speed 6 mph    
Max Gust Speed -    
Visibility 8 miles    
Events      
Averages and records for this station are not official NWS values.
T = Trace of Precipitation, MM = Missing Value Source: NWS Daily Summary

Daily Weather History Graph

Daily Weather History Graph

Search for Another Location

Airport or City:

Trip Planner

Search our weather history database for the weather conditions in past years. The results will help you decide how hot, cold, wet, or windy it might be!

Date:

Astronomy

Jun. 16, 2014 Rise Set
Actual Time 5:52 AM EDT 8:36 PM EDT
Civil Twilight 5:21 AM EDT 9:07 PM EDT
Nautical Twilight 4:42 AM EDT 9:46 PM EDT
Astronomical Twilight 3:59 AM EDT 10:30 PM EDT
Moon 11:31 PM EDT (6/16) 9:50 AM EDT (6/16)
Length of Visible Light 15h 45m
Length of Day
14h 43m
Waning Gibbous, 83% of the Moon is Illuminated
Jun 16
Waning Gibbous
Jun 19
Last Quarter
Jun 27
New
Jul 5
First Quarter
Jul 12
Full

Hourly Weather History & Observations

Time (EDT) Temp. Heat Index Dew Point Humidity Pressure Visibility Wind Dir Wind Speed Gust Speed Precip Events Conditions
12:15 AM 66.2 °F - 66.2 °F 100% 30.14 in 10.0 mi Calm Calm - N/A   Clear
12:35 AM 66.2 °F - 66.2 °F 100% 30.14 in 7.0 mi Calm Calm - N/A   Clear
12:55 AM 66.2 °F - 66.2 °F 100% 30.14 in 7.0 mi Calm Calm - N/A   Clear
1:15 AM 66.2 °F - 64.4 °F 94% 30.13 in 5.0 mi Calm Calm - N/A   Clear
1:35 AM 66.2 °F - 64.4 °F 94% 30.13 in 7.0 mi Calm Calm - N/A   Clear
1:55 AM 66.2 °F - 64.4 °F 94% 30.13 in 7.0 mi Calm Calm - N/A   Clear
2:15 AM 64.4 °F - 64.4 °F 100% 30.14 in 2.0 mi Calm Calm - N/A   Clear
2:35 AM 64.4 °F - 64.4 °F 100% 30.13 in 5.0 mi Calm Calm - N/A   Clear
2:55 AM 64.4 °F - 62.6 °F 94% 30.13 in 2.5 mi Calm Calm - N/A   Clear
3:15 AM 62.6 °F - 62.6 °F 100% 30.13 in 2.5 mi Calm Calm - N/A   Clear
3:35 AM 64.4 °F - 62.6 °F 94% 30.12 in 5.0 mi Calm Calm - N/A   Clear
3:55 AM 64.4 °F - 64.4 °F 100% 30.12 in 1.2 mi Calm Calm - N/A   Mist
4:15 AM 62.6 °F - 60.8 °F 94% 30.12 in 0.8 mi Calm Calm - N/A   Mist
4:35 AM 62.6 °F - 62.6 °F 100% 30.12 in 7.0 mi Calm Calm - N/A   Clear
4:55 AM 62.6 °F - 62.6 °F 100% 30.13 in 4.0 mi Calm Calm - N/A   Clear
5:15 AM 62.6 °F - 62.6 °F 100% 30.13 in 4.0 mi Calm Calm - N/A   Clear
5:35 AM 62.6 °F - 60.8 °F 94% 30.12 in 5.0 mi Calm Calm - N/A   Clear
5:55 AM 62.6 °F - 62.6 °F 100% 30.12 in 4.0 mi Calm Calm - N/A   Clear
6:15 AM 64.4 °F - 64.4 °F 100% 30.13 in 5.0 mi Calm Calm - N/A   Clear
6:35 AM 64.4 °F - 62.6 °F 94% 30.14 in 3.0 mi Calm Calm - N/A   Clear
6:55 AM 66.2 °F - 64.4 °F 94% 30.14 in 5.0 mi Calm Calm - N/A   Clear
7:15 AM 68.0 °F - 66.2 °F 94% 30.14 in 7.0 mi Calm Calm - N/A   Clear
7:35 AM 69.8 °F - 68.0 °F 94% 30.14 in 7.0 mi Calm Calm - N/A   Clear
7:55 AM 71.6 °F - 69.8 °F 94% 30.14 in 10.0 mi South 3.5 mph - N/A   Clear
8:15 AM 73.4 °F - 69.8 °F 88% 30.14 in 10.0 mi SSW 4.6 mph - N/A   Clear
8:35 AM 73.4 °F - 66.2 °F 78% 30.14 in 10.0 mi SW 4.6 mph - N/A   Clear
8:55 AM 75.2 °F - 66.2 °F 73% 30.15 in 10.0 mi SSW 3.5 mph - N/A   Clear
9:15 AM 78.8 °F - 66.2 °F 65% 30.15 in 10.0 mi SW 5.8 mph - N/A   Clear
9:35 AM 80.6 °F 82.7 °F 66.2 °F 61% 30.15 in 10.0 mi WSW 5.8 mph - N/A   Clear
9:55 AM 82.4 °F 84.6 °F 66.2 °F 58% 30.15 in 10.0 mi WSW 4.6 mph - N/A   Clear
10:15 AM 82.4 °F 84.6 °F 66.2 °F 58% 30.14 in 10.0 mi WSW 5.8 mph - N/A   Clear
10:35 AM 84.2 °F 86.6 °F 66.2 °F 55% 30.14 in 10.0 mi WSW 5.8 mph - N/A   Clear
10:55 AM 84.2 °F 86.6 °F 66.2 °F 55% 30.14 in 10.0 mi West 4.6 mph - N/A   Clear
11:15 AM 86.0 °F 89.4 °F 68.0 °F 55% 30.14 in 10.0 mi West 3.5 mph - N/A   Clear
11:35 AM 87.8 °F 90.4 °F 66.2 °F 49% 30.14 in 10.0 mi WSW 3.5 mph - N/A   Clear
11:55 AM 89.6 °F 94.7 °F 69.8 °F 52% 30.13 in 10.0 mi WSW 3.5 mph - N/A   Clear
12:15 PM 87.8 °F 89.4 °F 64.4 °F 46% 30.13 in 10.0 mi NNW 4.6 mph - N/A   Clear
12:35 PM 89.6 °F 92.2 °F 66.2 °F 46% 30.13 in 10.0 mi North 5.8 mph - N/A   Clear
12:55 PM 89.6 °F 92.2 °F 66.2 °F 46% 30.12 in 10.0 mi Calm Calm - N/A   Clear
1:15 PM 89.6 °F 92.2 °F 66.2 °F 46% 30.12 in 10.0 mi North 4.6 mph - N/A   Clear
1:35 PM 91.4 °F 94.0 °F 66.2 °F 43% 30.11 in 10.0 mi NE 4.6 mph - N/A   Clear
2:15 PM 93.2 °F 94.9 °F 64.4 °F 38% 30.10 in 10.0 mi North 3.5 mph - N/A   Scattered Clouds
2:35 PM 91.4 °F 93.2 °F 64.4 °F 41% 30.09 in 10.0 mi NE 4.6 mph - N/A   Clear
2:55 PM 91.4 °F 93.2 °F 64.4 °F 41% 30.09 in 10.0 mi NE 3.5 mph - N/A   Scattered Clouds
3:15 PM 93.2 °F 94.1 °F 62.6 °F 36% 30.08 in 10.0 mi Calm Calm - N/A   Scattered Clouds
3:35 PM 91.4 °F 93.2 °F 64.4 °F 41% 30.07 in 10.0 mi Calm Calm - N/A   Scattered Clouds
3:55 PM 89.6 °F 91.1 °F 64.4 °F 43% 30.07 in 10.0 mi Calm Calm - N/A   Unknown
4:15 PM 91.4 °F 92.1 °F 62.6 °F 38% 30.07 in 10.0 mi Calm Calm - N/A   Scattered Clouds
4:35 PM 93.2 °F 94.1 °F 62.6 °F 36% 30.07 in 10.0 mi North 3.5 mph - N/A   Clear
4:55 PM 93.2 °F 94.9 °F 64.4 °F 38% 30.06 in 10.0 mi SSE 3.5 mph - N/A   Clear
5:15 PM 93.2 °F 94.1 °F 62.6 °F 36% 30.06 in 10.0 mi SE 3.5 mph - N/A   Clear
5:35 PM 91.4 °F 94.0 °F 66.2 °F 43% 30.06 in 10.0 mi Calm Calm - N/A   Clear
5:55 PM 91.4 °F 93.2 °F 64.4 °F 41% 30.06 in 10.0 mi Calm Calm - N/A   Clear
6:15 PM 91.4 °F 94.0 °F 66.2 °F 43% 30.06 in 10.0 mi Calm Calm - N/A   Clear
6:35 PM 87.8 °F 93.8 °F 71.6 °F 58% 30.06 in 10.0 mi Calm Calm - N/A   Clear
6:55 PM 87.8 °F 93.8 °F 71.6 °F 58% 30.06 in 10.0 mi Calm Calm - N/A   Clear
7:15 PM 86.0 °F 91.8 °F 71.6 °F 62% 30.05 in 10.0 mi Calm Calm - N/A   Clear
7:35 PM 84.2 °F 89.6 °F 71.6 °F 66% 30.06 in 10.0 mi Calm Calm - N/A   Clear
7:55 PM 82.4 °F 87.2 °F 71.6 °F 70% 30.06 in 10.0 mi Calm Calm - N/A   Clear
8:15 PM 82.4 °F 87.2 °F 71.6 °F 70% 30.06 in 10.0 mi SW 3.5 mph - N/A   Clear
8:35 PM 82.4 °F 86.3 °F 69.8 °F 66% 30.07 in 10.0 mi SW 3.5 mph - N/A   Clear
8:55 PM 80.6 °F 83.9 °F 69.8 °F 70% 30.08 in 10.0 mi West 3.5 mph - N/A   Clear
9:15 PM 78.8 °F - 69.8 °F 74% 30.08 in 10.0 mi Calm Calm - N/A   Clear
9:35 PM 78.8 °F - 69.8 °F 74% 30.09 in 10.0 mi Calm Calm - N/A   Clear
9:55 PM 75.2 °F - 69.8 °F 83% 30.10 in 10.0 mi Calm Calm - N/A   Clear
10:15 PM 78.8 °F - 68.0 °F 69% 30.10 in 10.0 mi Calm Calm - N/A   Clear
10:35 PM 75.2 °F - 68.0 °F 78% 30.09 in 10.0 mi Calm Calm - N/A   Clear
10:55 PM 75.2 °F - 71.6 °F 89% 30.09 in 10.0 mi SW 3.5 mph - N/A   Clear
11:15 PM 73.4 °F - 71.6 °F 94% 30.09 in 10.0 mi WSW 4.6 mph - N/A   Clear
11:35 PM 75.2 °F - 69.8 °F 83% 30.09 in 10.0 mi WSW 4.6 mph - N/A   Clear
11:55 PM 73.4 °F - 69.8 °F 88% 30.09 in 10.0 mi Calm Calm - N/A   Clear